Location: Usti nad Labem
(50.6670°N, 14.0330°E)
Time: 22:29:23
(UTC+01:00)

Envisat - Pass Details

Date: 09 December 2020
Orbit: 764 x 766 km, 98.1° (Epoch: 15 January)

Event Time Altitude Azimuth Distance (km) Brightness Sun altitude
Rises 04:40:10 0° 27° (NNE) 3,245 6.6 -29.4°
Reaches altitude 10° 04:43:20 10° 48° (NE) 2,312 6.0 -28.9°
Maximum altitude 04:46:35 17° 87° (E) 1,875 5.8 -28.4°
Drops below altitude 10° 04:49:49 10° 127° (SE) 2,300 6.1 -27.9°
Sets 04:52:56 0° 148° (SSE) 3,220 6.7 -27.4°
